{"data":{"norad_id":57406,"epoch":"2026-08-13T13:52:57.750816Z","epoch_age_seconds":3400687,"freshness":"OLD","line1":"1 57406U 23102C   26225.57844619  .09624767  90339-5  30946-2 0  9995","line2":"2 57406  42.9906  69.1529 0012212 280.1582  79.7927 16.25007527170385","mean_motion":16.25007527,"eccentricity":0.0012212,"inclination_deg":42.9906,"raan_deg":69.1529,"arg_perigee_deg":280.1582,"mean_anomaly_deg":79.7927,"bstar":0.0030946,"rev_number":17038,"period_min":88.614974150824,"perigee_km":197.95033281915,"apogee_km":214.03140672829,"semimajor_km":6584.1278697737,"source":"CELESTRAK","updated_at":"2026-08-15T09:00:52.748972Z"}}